Location: Maiden
(35.5760°N, 81.2120°W)
Time: 01:58:28
(UTC-04:00)

Cosmos 2082 Rocket - Pass Details

Date: 02 August 2020
Orbit: 834 x 853 km, 71.0° (Epoch: 11 August)

Event Time Altitude Azimuth Distance (km) Brightness Sun altitude
Exits shadow 22:40:08 23° 69° (ENE) 1,750 3.6 -23.3°
Drops below altitude 10° 22:42:51 10° 45° (NE) 2,478 4.6 -23.7°
Sets 22:45:36 0° 34° (NE) 3,415 5.5 -24.1°
